GSAT0218 (GALILEO 22) (43058 NORAD) Tracking and Keplerian Element Data

This shows tracking and keplerian element data for the satellite.

Feedback or suggestion? Click here.




ElementValue
Catalog43058
NameGSAT0218 (GALILEO 22)
Epoch Orbit573
Epoch Day316.79007983
Epoch Year2018
RAAN297.7475
Inclination56.7354
Eccentricity0.0006211
Argument of Perigee256.7267
Mean Anonmoly103.1895
Mean Motion1.70473792
Decay Rate-3.1E-07
L11 43058U 17079D 18316.79007983 -.00000031 00000-0 00000-0 0 9991
L22 43058 56.7354 297.7475 0006211 256.7267 103.1895 1.70473792 5730

Live tracking and technical data element details for GSAT0218 (GALILEO 22) (NORAD 43058). GSAT0218 (GALILEO 22) can be tracked NOW for your location showing map with azimuth and elevation plus other details from your city location.

Track the satellite on the map from your city or location and see movement details for azimuth, elevation, latitude, longitude, range, height, and movement on the map or in text.







IsCatalogInMostPopularTable: catalog: 43058, numindb: 171
Update: records affected: 1



GetName: 43058 GSAT0218 (GALILEO 22)

Hit Count: updated at: Wed, 14 Nov 2018 15:25:22 GMT